Location: Beneden-Haastrecht
(52.0012°N, 4.7557°E)
Time: 12:06:02
(UTC+00:00)

Cosmos 1356 Rocket - Pass Details

Date: 24 October 2020
Orbit: 542 x 598 km, 81.2° (Epoch: 24 November)

Event Time Altitude Azimuth Distance (km) Brightness Sun altitude
Rises 17:21:18 0° 197° (SSW) 2,810 7.3 -8.9°
Reaches altitude 10° 17:23:29 10° 199° (SSW) 1,921 6.5 -9.3°
Maximum altitude 17:27:45 73° 284° (WNW) 631 3.8 -9.9°
Drops below altitude 10° 17:32:04 10° 10° (N) 1,952 6.0 -10.6°
Sets 17:34:19 0° 12° (NNE) 2,860 6.8 -10.9°
